| time (UTC) | temp C | wind direction | speed KPH | gust KPH | rain 1hr cm | rain 24hr cm | rain mn cm | humidity % | barometer mb |
| 20260504214030 | 25 | 201 | 3.2 | 4.8 | 0.00 | 0.00 | 0.00 | 52 | 1007.9 |
| 20260504213526 | 25 | 210 | 3.2 | 6.4 | 0.00 | 0.00 | 0.00 | 46 | 1008.4 |
| 20260504213023 | 26 | 214 | 11.3 | 12.9 | 0.00 | 0.00 | 0.00 | 44 | 1008.2 |
| 20260504212519 | 26 | 182 | 6.4 | 8.0 | 0.00 | 0.00 | 0.00 | 45 | 1008.3 |
| 20260504212017 | 26 | 188 | 9.7 | 14.5 | 0.00 | 0.00 | 0.00 | 45 | 1008.4 |
| 20260504211513 | 26 | 229 | 6.4 | 12.9 | 0.00 | 0.00 | 0.00 | 44 | 1008.4 |
| 20260504211011 | 26 | 243 | 8.0 | 12.9 | 0.00 | 0.00 | 0.00 | 47 | 1008.2 |
| 20260504210508 | 26 | 248 | 16.1 | 17.7 | 0.00 | 0.00 | 0.00 | 42 | 1008.4 |
| 20260504210004 | 27 | 267 | 8.0 | 9.7 | 0.00 | 0.00 | 0.00 | 46 | 1008.5 |
| 20260504205502 | 27 | 164 | 4.8 | 6.4 | 0.00 | 0.00 | 0.00 | 44 | 1008.6 |
| 20260504205000 | 26 | 151 | 8.0 | 9.7 | 0.00 | 0.00 | 0.00 | 46 | 1008.6 |
| 20260504204458 | 26 | 222 | 9.7 | 14.5 | 0.00 | 0.00 | 0.00 | 45 | 1008.9 |
| 20260504203957 | 26 | 239 | 4.8 | 6.4 | 0.00 | 0.00 | 0.00 | 44 | 1008.9 |
| 20260504203454 | 26 | 133 | 4.8 | 8.0 | 0.00 | 0.00 | 0.00 | 45 | 1008.8 |
| 20260504202950 | 26 | 169 | 9.7 | 9.7 | 0.00 | 0.00 | 0.00 | 43 | 1009.1 |
| 20260504202446 | 26 | 243 | 6.4 | 9.7 | 0.00 | 0.00 | 0.00 | 47 | 1009.2 |
| 20260504201943 | 26 | 193 | 6.4 | 9.7 | 0.00 | 0.00 | 0.00 | 44 | 1009.3 |
| 20260504201441 | 26 | 212 | 1.6 | 6.4 | 0.00 | 0.00 | 0.00 | 48 | 1009.2 |
| 20260504200938 | 26 | 195 | 14.5 | 19.3 | 0.00 | 0.00 | 0.00 | 43 | 1009.3 |
| 20260504200435 | 26 | 211 | 3.2 | 4.8 | 0.00 | 0.00 | 0.00 | 46 | 1009.3 |
| 20260504195931 | 26 | 244 | 9.7 | 14.5 | 0.00 | 0.00 | 0.00 | 43 | 1009.5 |
| 20260504195427 | 26 | 160 | 4.8 | 8.0 | 0.00 | 0.00 | 0.00 | 46 | 1009.5 |
| 20260504194924 | 26 | 208 | 12.9 | 17.7 | 0.00 | 0.00 | 0.00 | 42 | 1009.6 |
| 20260504194420 | 26 | 208 | 9.7 | 19.3 | 0.00 | 0.00 | 0.00 | 42 | 1009.8 |
| 20260504193916 | 26 | 227 | 8.0 | 9.7 | 0.00 | 0.00 | 0.00 | 46 | 1009.9 |
| 20260504193414 | 26 | 216 | 12.9 | 19.3 | 0.00 | 0.00 | 0.00 | 43 | 1010.2 |
| 20260504192912 | 26 | 180 | 9.7 | 9.7 | 0.00 | 0.00 | 0.00 | 44 | 1009.9 |
| 20260504192409 | 26 | 152 | 9.7 | 17.7 | 0.00 | 0.00 | 0.00 | 43 | 1010.2 |
| 20260504191908 | 26 | 207 | 16.1 | 24.1 | 0.00 | 0.00 | 0.00 | 43 | 1010.1 |
| 20260504191405 | 26 | 255 | 8.0 | 9.7 | 0.00 | 0.00 | 0.00 | 43 | 1010.2 |
| 20260504190900 | 26 | 117 | 8.0 | 12.9 | 0.00 | 0.00 | 0.00 | 44 | 1010.3 |
| 20260504190356 | 26 | 171 | 6.4 | 8.0 | 0.00 | 0.00 | 0.00 | 44 | 1010.2 |
| 20260504185853 | 26 | 239 | 8.0 | 8.0 | 0.00 | 0.00 | 0.00 | 42 | 1010.6 |
| 20260504185350 | 25 | 203 | 9.7 | 14.5 | 0.00 | 0.00 | 0.00 | 44 | 1010.3 |
| 20260504184846 | 25 | 89 | 6.4 | 9.7 | 0.00 | 0.00 | 0.00 | 43 | 1010.6 |
| 20260504184342 | 25 | 220 | 9.7 | 12.9 | 0.00 | 0.00 | 0.00 | 45 | 1010.8 |
| 20260504183838 | 25 | 247 | 9.7 | 12.9 | 0.00 | 0.00 | 0.00 | 45 | 1010.7 |
| 20260504183336 | 25 | 207 | 6.4 | 8.0 | 0.00 | 0.00 | 0.00 | 46 | 1010.9 |
| 20260504182833 | 25 | 206 | 12.9 | 20.9 | 0.00 | 0.00 | 0.00 | 44 | 1010.9 |
| 20260504182331 | 25 | 207 | 9.7 | 14.5 | 0.00 | 0.00 | 0.00 | 44 | 1010.9 |
| 20260504181827 | 25 | 161 | 4.8 | 8.0 | 0.00 | 0.00 | 0.00 | 43 | 1010.4 |
| 20260504181325 | 26 | 146 | 8.0 | 9.7 | 0.00 | 0.00 | 0.00 | 44 | 1010.7 |
| 20260504180824 | 25 | 137 | 3.2 | 6.4 | 0.00 | 0.00 | 0.00 | 47 | 1010.6 |
| 20260504180322 | 25 | 222 | 11.3 | 14.5 | 0.00 | 0.00 | 0.00 | 44 | 1010.9 |
| 20260504175820 | 25 | 232 | 3.2 | 6.4 | 0.00 | 0.00 | 0.00 | 49 | 1011.0 |
| 20260504175316 | 25 | 207 | 11.3 | 14.5 | 0.00 | 0.00 | 0.00 | 44 | 1011.1 |
| 20260504174815 | 25 | 194 | 12.9 | 14.5 | 0.00 | 0.00 | 0.00 | 43 | 1011.2 |
| 20260504174311 | 25 | 194 | 8.0 | 9.7 | 0.00 | 0.00 | 0.00 | 45 | 1011.3 |
| 20260504173808 | 25 | 219 | 12.9 | 17.7 | 0.00 | 0.00 | 0.00 | 44 | 1011.5 |
| 20260504173305 | 25 | 235 | 6.4 | 9.7 | 0.00 | 0.00 | 0.00 | 44 | 1011.7 |
| 20260504172802 | 24 | 164 | 4.8 | 8.0 | 0.00 | 0.00 | 0.00 | 45 | 1011.8 |
| 20260504172259 | 24 | 250 | 19.3 | 25.7 | 0.00 | 0.00 | 0.00 | 43 | 1011.9 |
| 20260504171754 | 25 | 241 | 14.5 | 24.1 | 0.00 | 0.00 | 0.00 | 44 | 1012.0 |
| 20260504171252 | 25 | 192 | 16.1 | 19.3 | 0.00 | 0.00 | 0.00 | 44 | 1011.7 |
| 20260504170749 | 25 | 193 | 6.4 | 8.0 | 0.00 | 0.00 | 0.00 | 45 | 1011.7 |
| 20260504170246 | 24 | 242 | 19.3 | 25.7 | 0.00 | 0.00 | 0.00 | 45 | 1011.9 |
| 20260504160204 | 23 | 246 | 6.4 | 8.0 | 0.00 | 0.00 | 0.00 | 51 | 1012.5 |
| 20260504151132 | 22 | 263 | 19.3 | 25.7 | 0.00 | 0.00 | 0.00 | 51 | 1012.7 |
| 20260504150630 | 22 | 193 | 12.9 | 17.7 | 0.00 | 0.00 | 0.00 | 53 | 1012.6 |
| 20260504150126 | 22 | 255 | 14.5 | 20.9 | 0.00 | 0.00 | 0.00 | 53 | 1012.6 |
| 20260504141055 | 20 | 216 | 4.8 | 6.4 | 0.00 | 0.00 | 0.00 | 62 | 1012.9 |
| 20260504140551 | 20 | 169 | 3.2 | 4.8 | 0.00 | 0.00 | 0.00 | 62 | 1013.0 |
| 20260504130516 | 18 | 194 | 4.8 | 6.4 | 0.00 | 0.00 | 0.00 | 68 | 1013.0 |
| 20260504110403 | 11 | 132 | 0.0 | 0.0 | 0.00 | 0.00 | 0.00 | 95 | 1012.0 |
| 20260504100320 | 11 | 131 | 0.0 | 0.0 | 0.00 | 0.00 | 0.00 | 93 | 1012.4 |
| 20260504081714 | 13 | 143 | 0.0 | 0.0 | 0.00 | 0.00 | 0.00 | 88 | 1012.5 |
| 20260504081210 | 13 | 138 | 0.0 | 0.0 | 0.00 | 0.00 | 0.00 | 86 | 1012.6 |
| 20260504080706 | 14 | 152 | 0.0 | 0.0 | 0.00 | 0.00 | 0.00 | 84 | 1012.6 |
| 20260504080203 | 13 | 161 | 0.0 | 0.0 | 0.00 | 0.00 | 0.00 | 86 | 1012.6 |
| 20260504070131 | 13 | 144 | 0.0 | 0.0 | 0.00 | 0.00 | 0.00 | 87 | 1013.0 |
| 20260504050520 | 16 | 163 | 0.0 | 0.0 | 0.00 | 0.00 | 0.00 | 76 | 1013.5 |
| 20260504050016 | 16 | 147 | 0.0 | 1.6 | 0.00 | 0.00 | 0.00 | 76 | 1013.3 |
| 20260504045513 | 15 | 190 | 1.6 | 1.6 | 0.00 | 0.00 | 0.00 | 76 | 1013.5 |
| 20260504045008 | 16 | 144 | 0.0 | 1.6 | 0.00 | 0.00 | 0.00 | 78 | 1013.5 |
| 20260504044506 | 16 | 140 | 0.0 | 1.6 | 0.00 | 0.00 | 0.00 | 77 | 1013.4 |
| 20260504044003 | 16 | 136 | 0.0 | 1.6 | 0.00 | 0.00 | 0.00 | 78 | 1013.4 |
| 20260504043500 | 15 | 162 | 0.0 | 0.0 | 0.00 | 0.00 | 0.00 | 80 | 1013.4 |
| 20260504042958 | 15 | 218 | 0.0 | 1.6 | 0.00 | 0.00 | 0.00 | 81 | 1013.3 |
| 20260504042454 | 15 | 150 | 0.0 | 0.0 | 0.00 | 0.00 | 0.00 | 82 | 1013.5 |
| 20260504041951 | 15 | 140 | 0.0 | 0.0 | 0.00 | 0.00 | 0.00 | 83 | 1013.7 |
| 20260504041447 | 15 | 150 | 0.0 | 0.0 | 0.00 | 0.00 | 0.00 | 82 | 1013.6 |
| 20260504040943 | 15 | 129 | 0.0 | 0.0 | 0.00 | 0.00 | 0.00 | 82 | 1013.7 |
| 20260504040441 | 15 | 147 | 0.0 | 0.0 | 0.00 | 0.00 | 0.00 | 81 | 1013.8 |
| 20260504035936 | 15 | 134 | 0.0 | 0.0 | 0.00 | 0.00 | 0.00 | 79 | 1013.8 |
| 20260504035434 | 15 | 150 | 0.0 | 0.0 | 0.00 | 0.00 | 0.00 | 81 | 1013.8 |
| 20260504034931 | 15 | 127 | 0.0 | 0.0 | 0.00 | 0.00 | 0.00 | 82 | 1013.7 |
| 20260504034428 | 15 | 128 | 1.6 | 1.6 | 0.00 | 0.00 | 0.00 | 81 | 1013.8 |
| 20260504033925 | 15 | 159 | 0.0 | 1.6 | 0.00 | 0.00 | 0.00 | 80 | 1013.6 |
| 20260504033423 | 15 | 143 | 0.0 | 1.6 | 0.00 | 0.00 | 0.00 | 80 | 1013.7 |
| 20260504032920 | 15 | 161 | 0.0 | 0.0 | 0.00 | 0.00 | 0.00 | 79 | 1013.8 |
| 20260504032417 | 15 | 143 | 0.0 | 0.0 | 0.00 | 0.00 | 0.00 | 80 | 1013.8 |
| 20260504031913 | 15 | 143 | 0.0 | 0.0 | 0.00 | 0.00 | 0.00 | 80 | 1013.7 |
| 20260504031411 | 15 | 148 | 0.0 | 0.0 | 0.00 | 0.00 | 0.00 | 79 | 1013.9 |
| 20260504030907 | 15 | 158 | 0.0 | 0.0 | 0.00 | 0.00 | 0.00 | 79 | 1013.8 |
| 20260504030404 | 16 | 149 | 0.0 | 0.0 | 0.00 | 0.00 | 0.00 | 79 | 1013.8 |
| 20260504025900 | 16 | 144 | 0.0 | 0.0 | 0.00 | 0.00 | 0.00 | 79 | 1013.9 |
| 20260504025357 | 16 | 145 | 0.0 | 0.0 | 0.00 | 0.00 | 0.00 | 80 | 1013.6 |
| 20260504024854 | 16 | 145 | 0.0 | 0.0 | 0.00 | 0.00 | 0.00 | 79 | 1013.7 |
| 20260504024350 | 16 | 144 | 0.0 | 0.0 | 0.00 | 0.00 | 0.00 | 78 | 1013.8 |
| 20260504023848 | 16 | 149 | 0.0 | 0.0 | 0.00 | 0.00 | 0.00 | 77 | 1013.6 |
| 20260504023344 | 16 | 154 | 0.0 | 0.0 | 0.00 | 0.00 | 0.00 | 76 | 1013.6 |
| 20260504022839 | 17 | 147 | 0.0 | 0.0 | 0.00 | 0.00 | 0.00 | 74 | 1013.3 |
| 20260504022337 | 17 | 146 | 0.0 | 0.0 | 0.00 | 0.00 | 0.00 | 70 | 1013.4 |
| 20260504021833 | 17 | 143 | 0.0 | 0.0 | 0.00 | 0.00 | 0.00 | 69 | 1013.7 |
| 20260504021331 | 18 | 142 | 0.0 | 0.0 | 0.00 | 0.00 | 0.00 | 66 | 1013.6 |
| 20260504020828 | 18 | 140 | 0.0 | 0.0 | 0.00 | 0.00 | 0.00 | 64 | 1013.4 |
| 20260504020324 | 18 | 146 | 0.0 | 0.0 | 0.00 | 0.00 | 0.00 | 65 | 1013.5 |
| 20260504015820 | 18 | 134 | 0.0 | 0.0 | 0.00 | 0.00 | 0.00 | 64 | 1013.5 |
| 20260504015317 | 18 | 148 | 0.0 | 0.0 | 0.00 | 0.00 | 0.00 | 64 | 1013.6 |
| 20260504014813 | 20 | 159 | 0.0 | 0.0 | 0.00 | 0.00 | 0.00 | 60 | 1013.4 |
| 20260504014309 | 20 | 143 | 0.0 | 0.0 | 0.00 | 0.00 | 0.00 | 56 | 1013.3 |
| 20260504013807 | 20 | 143 | 0.0 | 0.0 | 0.00 | 0.00 | 0.00 | 55 | 1013.5 |
| 20260504013305 | 20 | 144 | 1.6 | 1.6 | 0.00 | 0.00 | 0.00 | 55 | 1013.5 |
| 20260504012800 | 21 | 146 | 0.0 | 0.0 | 0.00 | 0.00 | 0.00 | 54 | 1013.2 |
| 20260504012259 | 21 | 137 | 0.0 | 0.0 | 0.00 | 0.00 | 0.00 | 52 | 1013.4 |
| 20260504011755 | 21 | 147 | 0.0 | 1.6 | 0.00 | 0.00 | 0.00 | 53 | 1013.2 |
| 20260504011252 | 21 | 147 | 0.0 | 0.0 | 0.00 | 0.00 | 0.00 | 53 | 1013.3 |
| 20260504010748 | 21 | 148 | 0.0 | 0.0 | 0.00 | 0.00 | 0.00 | 52 | 1013.1 |
| 20260504010244 | 21 | 141 | 0.0 | 0.0 | 0.00 | 0.00 | 0.00 | 52 | 1013.1 |
| 20260504005741 | 21 | 141 | 1.6 | 1.6 | 0.00 | 0.00 | 0.00 | 51 | 1013.3 |
| 20260504005238 | 21 | 144 | 0.0 | 0.0 | 0.00 | 0.00 | 0.00 | 51 | 1013.1 |
| 20260504004736 | 22 | 150 | 0.0 | 0.0 | 0.00 | 0.00 | 0.00 | 52 | 1013.1 |
| 20260504004232 | 22 | 145 | 0.0 | 1.6 | 0.00 | 0.00 | 0.00 | 51 | 1013.2 |
| 20260504003729 | 22 | 166 | 1.6 | 1.6 | 0.00 | 0.00 | 0.00 | 49 | 1013.1 |
| 20260504003226 | 23 | 149 | 0.0 | 0.0 | 0.00 | 0.00 | 0.00 | 48 | 1013.4 |
| 20260504002723 | 23 | 149 | 0.0 | 0.0 | 0.00 | 0.00 | 0.00 | 48 | 1013.5 |
| 20260504002219 | 24 | 150 | 0.0 | 0.0 | 0.00 | 0.00 | 0.00 | 47 | 1013.4 |
| 20260504001718 | 25 | 152 | 0.0 | 1.6 | 0.00 | 0.00 | 0.00 | 45 | 1013.7 |
| 20260504001214 | 25 | 150 | 0.0 | 0.0 | 0.00 | 0.00 | 0.00 | 44 | 1013.6 |
| 20260504000711 | 25 | 161 | 0.0 | 1.6 | 0.00 | 0.00 | 0.00 | 43 | 1013.6 |
| 20260504000208 | 25 | 156 | 0.0 | 0.0 | 0.00 | 0.00 | 0.00 | 44 | 1013.4 |
| 20260503235706 | 25 | 167 | 1.6 | 1.6 | 0.00 | 0.00 | 0.00 | 41 | 1013.5 |
| 20260503235203 | 25 | 179 | 1.6 | 1.6 | 0.00 | 0.00 | 0.00 | 42 | 1013.6 |
| 20260503234700 | 25 | 184 | 3.2 | 4.8 | 0.00 | 0.00 | 0.00 | 42 | 1013.4 |
| 20260503234159 | 26 | 244 | 6.4 | 8.0 | 0.00 | 0.00 | 0.00 | 41 | 1013.6 |
| 20260503233655 | 26 | 198 | 3.2 | 4.8 | 0.00 | 0.00 | 0.00 | 42 | 1013.7 |
| 20260503233151 | 26 | 187 | 3.2 | 4.8 | 0.00 | 0.00 | 0.00 | 41 | 1013.7 |
| 20260503232648 | 26 | 184 | 3.2 | 4.8 | 0.00 | 0.00 | 0.00 | 42 | 1013.9 |
| 20260503232145 | 26 | 122 | 1.6 | 4.8 | 0.00 | 0.00 | 0.00 | 41 | 1013.6 |
| 20260503231643 | 26 | 229 | 8.0 | 8.0 | 0.00 | 0.00 | 0.00 | 39 | 1013.7 |
| 20260503231139 | 27 | 231 | 1.6 | 1.6 | 0.00 | 0.00 | 0.00 | 40 | 1013.6 |
| 20260503230636 | 27 | 170 | 0.0 | 0.0 | 0.00 | 0.00 | 0.00 | 43 | 1013.8 |
| 20260503230134 | 27 | 225 | 4.8 | 6.4 | 0.00 | 0.00 | 0.00 | 40 | 1013.5 |
| 20260503225631 | 26 | 151 | 0.0 | 1.6 | 0.00 | 0.00 | 0.00 | 41 | 1013.6 |
| 20260503225130 | 26 | 196 | 4.8 | 6.4 | 0.00 | 0.00 | 0.00 | 39 | 1013.7 |
| 20260503224628 | 26 | 239 | 6.4 | 6.4 | 0.00 | 0.00 | 0.00 | 39 | 1013.7 |
| 20260503224126 | 26 | 163 | 1.6 | 1.6 | 0.00 | 0.00 | 0.00 | 42 | 1013.8 |
| 20260503223624 | 26 | 207 | 3.2 | 6.4 | 0.00 | 0.00 | 0.00 | 39 | 1013.7 |
| 20260503223119 | 26 | 233 | 6.4 | 8.0 | 0.00 | 0.00 | 0.00 | 39 | 1013.9 |
| 20260503222617 | 26 | 202 | 3.2 | 6.4 | 0.00 | 0.00 | 0.00 | 39 | 1014.2 |
| 20260503222115 | 26 | 192 | 6.4 | 9.7 | 0.00 | 0.00 | 0.00 | 39 | 1014.2 |
| 20260503221613 | 26 | 192 | 3.2 | 4.8 | 0.00 | 0.00 | 0.00 | 40 | 1014.3 |
| 20260503221110 | 25 | 213 | 12.9 | 17.7 | 0.00 | 0.00 | 0.00 | 38 | 1014.5 |
| 20260503220607 | 26 | 265 | 16.1 | 19.3 | 0.00 | 0.00 | 0.00 | 39 | 1014.5 |
| 20260503220103 | 26 | 248 | 12.9 | 14.5 | 0.00 | 0.00 | 0.00 | 39 | 1014.3 |
| 20260503215600 | 26 | 244 | 8.0 | 9.7 | 0.00 | 0.00 | 0.00 | 43 | 1014.5 |
| 20260503215057 | 26 | 231 | 9.7 | 14.5 | 0.00 | 0.00 | 0.00 | 38 | 1014.3 |
| 20260503214555 | 26 | 240 | 9.7 | 9.7 | 0.00 | 0.00 | 0.00 | 39 | 1014.3 |